TimePST,TemperatureF,Dew PointF,Humidity,Sea Level PressureIn,VisibilityMPH,Wind Direction,Wind SpeedMPH,Gust SpeedMPH,PrecipitationIn,Events,Conditions,WindDirDegrees,DateUTC
12:53 AM,46.9,39.0,74,30.17,10.0,ESE,4.6,-,N/A,,Mostly Cloudy,120,2013-11-09 08:53:00
1:53 AM,46.9,39.0,74,30.16,10.0,East,4.6,-,N/A,,Mostly Cloudy,90,2013-11-09 09:53:00
2:53 AM,44.1,37.0,76,30.16,10.0,Calm,Calm,-,N/A,,Scattered Clouds,0,2013-11-09 10:53:00
3:53 AM,45.0,39.0,80,30.16,10.0,SE,4.6,-,N/A,,Partly Cloudy,130,2013-11-09 11:53:00
4:53 AM,43.0,37.0,80,30.15,10.0,Calm,Calm,-,N/A,,Partly Cloudy,0,2013-11-09 12:53:00
5:53 AM,43.0,37.0,80,30.14,10.0,SE,3.5,-,N/A,,Mostly Cloudy,140,2013-11-09 13:53:00
6:53 AM,42.1,36.0,79,30.14,10.0,North,3.5,-,N/A,,Mostly Cloudy,360,2013-11-09 14:53:00
7:29 AM,44.6,37.4,76,30.12,10.0,Calm,Calm,-,N/A,,Mostly Cloudy,0,2013-11-09 15:29:00
7:47 AM,44.6,39.2,81,30.12,0.8,NE,4.6,-,N/A,Fog,Patches of Fog,40,2013-11-09 15:47:00
7:53 AM,45.0,39.0,80,30.14,0.8,NNE,4.6,-,N/A,Fog,Patches of Fog,30,2013-11-09 15:53:00
8:08 AM,44.6,41.0,87,30.10,0.5,ENE,4.6,-,N/A,Fog,Fog,60,2013-11-09 16:08:00
8:15 AM,44.6,41.0,87,30.10,0.5,NE,5.8,-,N/A,Fog,Fog,50,2013-11-09 16:15:00
8:53 AM,46.0,41.0,83,30.13,0.5,North,3.5,-,N/A,Fog,Fog,360,2013-11-09 16:53:00
8:59 AM,46.4,41.0,81,30.10,0.5,Calm,Calm,-,N/A,Fog,Fog,0,2013-11-09 16:59:00
9:10 AM,46.4,42.8,87,30.11,0.5,Calm,Calm,-,N/A,Fog,Fog,0,2013-11-09 17:10:00
9:33 AM,46.4,42.8,87,30.11,0.5,NNW,5.8,-,N/A,Fog,Fog,340,2013-11-09 17:33:00
9:51 AM,46.4,42.8,87,30.11,4.0,NNW,4.6,-,N/A,,Overcast,340,2013-11-09 17:51:00
9:53 AM,46.0,42.1,86,30.13,4.0,NNW,4.6,-,N/A,,Overcast,340,2013-11-09 17:53:00
9:56 AM,46.4,42.8,87,30.11,0.8,North,8.1,-,N/A,,Overcast,350,2013-11-09 17:56:00
10:07 AM,46.4,42.8,87,30.11,7.0,NNE,5.8,-,N/A,,Overcast,20,2013-11-09 18:07:00
10:22 AM,46.4,42.8,87,30.12,8.0,North,3.5,-,N/A,,Overcast,360,2013-11-09 18:22:00
10:53 AM,48.0,42.1,80,30.14,9.0,Calm,Calm,-,N/A,,Overcast,0,2013-11-09 18:53:00
11:18 AM,48.2,42.8,82,30.11,10.0,Calm,Calm,-,N/A,,Overcast,0,2013-11-09 19:18:00
11:53 AM,50.0,42.1,74,30.13,10.0,Calm,Calm,-,N/A,,Mostly Cloudy,0,2013-11-09 19:53:00
11:58 AM,51.8,42.8,71,30.10,10.0,Calm,Calm,-,N/A,,Overcast,0,2013-11-09 19:58:00
12:53 PM,51.1,43.0,74,30.11,10.0,Calm,Calm,-,N/A,,Mostly Cloudy,0,2013-11-09 20:53:00
1:53 PM,50.0,42.1,74,30.11,10.0,West,4.6,-,N/A,,Overcast,260,2013-11-09 21:53:00
2:53 PM,50.0,42.1,74,30.12,10.0,Calm,Calm,-,0.00,Rain,Light Rain,0,2013-11-09 22:53:00
3:53 PM,50.0,43.0,77,30.12,10.0,NW,3.5,-,0.00,Rain,Light Rain,320,2013-11-09 23:53:00
4:53 PM,48.9,44.1,83,30.14,7.0,Calm,Calm,-,0.01,Rain,Light Rain,0,2013-11-10 00:53:00
5:53 PM,48.9,43.0,80,30.14,10.0,NNE,6.9,-,0.02,Rain,Light Rain,30,2013-11-10 01:53:00
6:53 PM,48.9,44.1,83,30.13,10.0,NE,8.1,-,0.01,Rain,Light Rain,40,2013-11-10 02:53:00
7:53 PM,48.9,44.1,83,30.13,10.0,NNE,6.9,-,0.01,Rain,Light Rain,20,2013-11-10 03:53:00
8:34 PM,48.2,44.6,87,30.10,8.0,North,6.9,-,0.00,Rain,Light Rain,360,2013-11-10 04:34:00
8:45 PM,48.2,44.6,87,30.10,9.0,North,4.6,-,0.00,Rain,Light Rain,360,2013-11-10 04:45:00
8:53 PM,48.9,44.1,83,30.13,3.0,North,4.6,-,0.00,Rain,Light Rain,350,2013-11-10 04:53:00
9:53 PM,48.9,44.1,83,30.14,4.0,Calm,Calm,-,0.01,Rain,Light Rain,0,2013-11-10 05:53:00
10:53 PM,48.0,44.1,86,30.13,5.0,North,6.9,-,0.01,Rain,Light Rain,360,2013-11-10 06:53:00
11:53 PM,48.0,43.0,83,30.13,10.0,North,3.5,-,0.00,Rain,Light Rain,10,2013-11-10 07:53:00